[[{"header":{"parameterUnit":"m.s-1","parameterCategory":1,"la1":30.2991,"la2":30.254,"lo1":-89.0895,"lo2":-89.0444,"dy":0.0017,"dx":0.0017,"nx":28,"ny":28,"refTime":"2024-07-29T03:00:00:Z","depth":0,"parameterNumber":2,"parameterNumberName":"U-component_of_WINDS"},"data":[0,0,0,0,0,0,0,0,0,0,0,0,0,0,0,0,0,0,0,0,0,0,0,0,0,0,0,0,0,0,0,0,0,0,0,0,0,0,0,0,0,0,0,0,0,0,0,0,0,0,0,0,0,0,0,0,0,0,2.2931,2.2931,0,2.3004,2.3005,2.3006,2.3013,2.3012,2.3011,2.301,2.3087,2.309,2.3093,0,0,0,0,0,0,0,0,0,0,0,0,0,2.2799,2.2801,2.2931,2.2931,2.2932,2.3004,2.3005,2.3006,2.3013,2.3012,2.3011,2.301,2.3086,2.309,2.3093,0,0,0,0,0,0,0,0,0,0,0,0,0,2.2863,2.2802,2.293,2.2944,2.2946,2.3004,2.3005,2.3006,2.3013,2.3012,2.301,2.3009,2.3085,2.3089,2.3093,2.3143,0,0,2.3106,2.3108,0,0,0,0,0,0,0,0,2.2859,2.2867,2.2941,2.2943,2.2946,2.2998,2.2987,2.3052,2.3013,2.2988,2.301,2.3009,2.3059,2.3065,2.3081,2.3146,2.315,2.3107,2.3109,2.3111,2.3112,0,0,0,0,0,0,0,2.2855,2.2864,2.296,2.2942,2.2945,2.2948,2.2956,2.2999,2.3029,2.299,2.299,2.2999,2.306,2.3077,2.3083,2.3151,2.3106,2.311,2.3113,2.3114,2.3263,2.3264,0,0,0,0,0,0,2.2847,2.2861,2.2957,2.2962,2.2899,2.2951,2.296,2.2982,2.3028,2.3034,2.3,2.2999,2.3071,2.3078,2.3086,2.3148,2.3111,2.3115,2.3117,2.3261,2.3263,2.3264,0,0,0,0,0,0,2.2844,2.2856,2.2954,2.2912,2.2924,2.2955,2.298,2.2984,2.3002,2.3036,2.3042,2.3012,2.307,2.308,2.3129,2.3151,2.3117,2.312,2.3259,2.3262,2.3264,2.3272,0,0,0,0,0,0,2.2841,2.2855,2.2873,2.2912,2.2927,2.2995,2.2981,2.2987,2.3009,2.3009,2.3049,2.3055,2.307,2.3123,2.3133,2.3156,2.3124,2.3258,2.326,2.3263,2.327,2.3274,2.3278,0,0,0,0,0,2.2836,2.2872,2.2874,2.2885,2.295,2.2996,2.3005,2.3021,2.3011,2.303,2.3052,2.3053,2.3147,2.3128,2.3139,2.3164,2.3256,2.326,2.3263,2.3268,2.3273,2.3278,0,0,0,0,0,0,2.2835,2.2877,2.288,2.2929,2.2959,2.2997,2.3022,2.3026,2.306,2.3058,2.3077,2.3086,2.3135,2.3154,2.3132,2.3215,2.3201,2.3206,2.3201,2.3206,2.321,2.3204,2.3127,0,0,0,0,0,2.284,2.2874,2.291,2.295,2.2965,2.2991,2.3012,2.3022,2.3054,2.3067,2.3092,2.3124,2.3161,2.3184,2.322,2.3273,2.3283,2.3296,2.33,2.3303,2.3308,2.3339,2.3346,2.3275,2.3275,2.3275,0,0,2.2852,2.288,2.29,2.2951,2.2975,2.3011,2.3002,2.3039,2.3066,2.3073,2.3121,2.3141,2.3178,2.3229,2.3253,2.3247,2.333,2.3307,2.3309,2.3312,2.3343,2.335,2.3356,2.3277,2.3277,2.3277,0,0,2.2892,2.2916,2.2953,2.2978,2.3015,2.3032,2.3041,2.308,2.3093,2.3142,2.3148,2.3181,2.3243,2.327,2.3291,2.3344,2.3347,2.3355,2.3375,2.3406,2.3412,2.3417,2.3437,2.3443,2.3359,2.3359,2.3359,0,2.2903,2.2955,2.2972,2.301,2.3033,2.3041,2.308,2.3103,2.315,2.3166,2.3158,2.3238,2.3263,2.3322,2.3335,2.3352,2.3364,2.335,2.3409,2.3415,2.342,2.3439,2.3446,2.336,2.336,2.336,2.336,0,2.2967,2.3004,2.303,2.3075,2.3101,2.3139,2.3163,2.3187,2.3196,2.3214,2.3265,2.3296,2.3338,2.3353,2.3361,2.3414,2.3409,2.3405,2.3391,2.3427,2.3445,2.3453,2.3361,2.3361,2.3361,2.3361,0,0,2.3007,2.3063,2.3072,2.3093,2.3136,2.3165,2.3205,2.3246,2.3268,2.33,2.3335,2.3388,2.3386,2.341,2.3422,2.3449,2.349,2.3442,2.3443,2.345,2.3552,2.3555,2.3563,2.3493,2.3494,2.3495,2.3549,0,2.3053,2.3123,2.3139,2.3199,2.3235,2.3244,2.3278,2.3309,2.3328,2.3362,2.3383,2.3421,2.3414,2.3429,2.3456,2.3479,2.3511,2.3476,2.3526,2.3528,2.3517,2.3573,2.3576,2.3626,2.3557,2.3558,2.3559,0,2.3115,2.3149,2.3213,2.3252,2.3268,2.3299,2.3339,2.3371,2.3407,2.3419,2.3447,2.3457,2.35,2.3483,2.3544,2.352,2.3542,2.3557,2.3559,2.3565,2.3546,2.3581,2.3642,2.3649,2.357,2.3569,2.3568,0,2.314,2.3202,2.3248,2.3266,2.3313,2.3335,2.3356,2.339,2.3415,2.3451,2.3467,2.3508,2.353,2.3562,2.3583,2.3569,2.3643,2.3627,2.3655,2.3655,2.367,2.3669,2.3736,2.3683,2.3683,2.3683,2.3683,0,2.3189,2.3228,2.326,2.3289,2.3333,2.3353,2.3397,2.3418,2.3449,2.3483,2.3494,2.3525,2.3551,2.3587,2.3604,2.3652,2.3662,2.3674,2.3678,2.3674,2.3672,2.3688,2.3686,2.3685,2.3684,2.3684,2.3684,0,2.3224,2.3247,2.3298,2.3339,2.335,2.3382,2.3417,2.3446,2.3466,2.3509,2.352,2.3552,2.3595,2.3619,2.3673,2.3684,2.3739,2.3741,2.3727,2.3729,2.3755,2.3753,2.3835,2.3848,2.3786,2.3787,2.3787,0,2.3254,2.3284,2.3329,2.3352,2.3373,2.341,2.3436,2.3457,2.3484,2.3528,2.3552,2.3595,2.3631,2.37,2.3728,2.377,2.3774,2.38,2.378,2.3775,2.3776,2.3774,2.3778,2.3804,2.3804,2.3805,2.3805,0,2.3306,2.3316,2.3352,2.3393,2.3423,2.3456,2.3488,2.3507,2.3534,2.3564,2.3608,2.3636,2.3691,2.3735,2.378,2.3803,2.3809,2.3811,2.382,2.3816,2.3807,2.3813,2.3737,2.3809,2.3809,2.3808,2.3808,2.3808,2.334,2.3368,2.3404,2.3444,2.3471,2.3502,2.3532,2.3556,2.3593,2.3639,2.365,2.3697,2.3734,2.3795,2.3819,2.3857,2.3852,2.3864,2.3868,2.3871,2.3872,2.38,2.3865,2.3865,2.3865,2.3865,2.3865,0,2.3393,2.3417,2.3454,2.35,2.3532,2.3535,2.3572,2.3599,2.364,2.3674,2.3709,2.3761,2.3804,2.3836,2.3881,2.3905,2.3909,2.3916,2.3915,2.392,2.3873,2.3862,2.3912,2.3912,2.3912,2.3912,2.3912,2.3912,2.3425,2.3473,2.3488,2.355,2.3574,2.362,2.3641,2.367,2.3697,2.3754,2.379,2.3811,2.3845,2.3892,2.3932,2.3941,2.3957,2.3964,2.3973,2.3928,2.3923,2.3919,2.3908,2.3967,2.3967,2.4017,2.4017,2.4018]},{"header":{"parameterUnit":"m.s-1","parameterCategory":1,"la1":30.2991,"la2":30.254,"lo1":-89.0895,"lo2":-89.0444,"dy":0.0017,"dx":0.0017,"nx":28,"ny":28,"refTime":"2024-07-29T03:00:00:Z","depth":0,"parameterNumber":3,"parameterNumberName":"V-component_of_WINDS"},"data":[0,0,0,0,0,0,0,0,0,0,0,0,0,0,0,0,0,0,0,0,0,0,0,0,0,0,0,0,0,0,0,0,0,0,0,0,0,0,0,0,0,0,0,0,0,0,0,0,0,0,0,0,0,0,0,0,0,0,-1.4489,-1.4489,0,-1.4534,-1.4534,-1.4535,-1.4556,-1.4556,-1.4556,-1.4556,-1.4601,-1.4603,-1.4604,0,0,0,0,0,0,0,0,0,0,0,0,0,-1.4422,-1.4423,-1.4488,-1.4489,-1.449,-1.4534,-1.4534,-1.4535,-1.4556,-1.4556,-1.4556,-1.4556,-1.4601,-1.4603,-1.4604,0,0,0,0,0,0,0,0,0,0,0,0,0,-1.4457,-1.4423,-1.4488,-1.4505,-1.4507,-1.4533,-1.4534,-1.4535,-1.4556,-1.4556,-1.4556,-1.4556,-1.4601,-1.4602,-1.4604,-1.4616,0,0,-1.461,-1.4611,0,0,0,0,0,0,0,0,-1.4455,-1.4459,-1.4502,-1.4504,-1.4507,-1.4539,-1.4527,-1.4562,-1.4556,-1.4537,-1.4556,-1.4556,-1.4581,-1.4584,-1.4593,-1.4618,-1.462,-1.461,-1.4611,-1.4612,-1.4612,0,0,0,0,0,0,0,-1.4452,-1.4458,-1.4506,-1.4503,-1.4506,-1.4511,-1.4516,-1.4534,-1.4559,-1.4539,-1.4541,-1.4546,-1.4582,-1.4591,-1.4594,-1.4621,-1.461,-1.4612,-1.4613,-1.4613,-1.4661,-1.4661,0,0,0,0,0,0,-1.4447,-1.4455,-1.4505,-1.4508,-1.448,-1.4512,-1.4518,-1.4529,-1.4559,-1.4563,-1.4546,-1.4547,-1.4588,-1.4592,-1.4596,-1.4613,-1.4612,-1.4614,-1.4615,-1.4661,-1.4661,-1.4661,0,0,0,0,0,0,-1.4446,-1.4451,-1.4503,-1.4482,-1.4489,-1.4514,-1.4525,-1.453,-1.4539,-1.4564,-1.4568,-1.455,-1.4588,-1.4593,-1.4612,-1.4615,-1.4615,-1.4616,-1.4661,-1.4661,-1.4661,-1.4647,0,0,0,0,0,0,-1.4444,-1.4451,-1.4455,-1.4482,-1.449,-1.4518,-1.4526,-1.4531,-1.4542,-1.4543,-1.4569,-1.4573,-1.4588,-1.4609,-1.4613,-1.4617,-1.4618,-1.4661,-1.4661,-1.4661,-1.4647,-1.4647,-1.4646,0,0,0,0,0,-1.4441,-1.4449,-1.4455,-1.4461,-1.4496,-1.4518,-1.4523,-1.454,-1.4542,-1.4547,-1.4564,-1.4573,-1.4614,-1.461,-1.4616,-1.4621,-1.466,-1.4661,-1.4661,-1.4648,-1.4647,-1.4646,0,0,0,0,0,0,-1.4421,-1.4453,-1.446,-1.4477,-1.4495,-1.4522,-1.4528,-1.4538,-1.4555,-1.4556,-1.4576,-1.4582,-1.4599,-1.4612,-1.4607,-1.4635,-1.4638,-1.464,-1.4626,-1.4626,-1.4625,-1.4622,-1.4619,0,0,0,0,0,-1.4419,-1.4434,-1.4461,-1.4473,-1.4481,-1.4503,-1.4513,-1.4525,-1.4544,-1.4552,-1.457,-1.4588,-1.4605,-1.4616,-1.4633,-1.465,-1.4656,-1.4656,-1.4655,-1.4655,-1.4656,-1.4667,-1.4667,-1.4663,-1.4663,-1.4663,0,0,-1.4414,-1.4433,-1.4441,-1.4469,-1.4484,-1.45,-1.4509,-1.4525,-1.4537,-1.4554,-1.4573,-1.4587,-1.4609,-1.4627,-1.4635,-1.4638,-1.4659,-1.4655,-1.4654,-1.4656,-1.4667,-1.4668,-1.4668,-1.4663,-1.4663,-1.4663,0,0,-1.4413,-1.4428,-1.4441,-1.4457,-1.448,-1.4495,-1.4498,-1.4524,-1.4534,-1.4553,-1.4567,-1.4582,-1.461,-1.4626,-1.4638,-1.4645,-1.4654,-1.465,-1.4647,-1.4658,-1.4658,-1.4659,-1.4662,-1.4663,-1.4651,-1.4651,-1.4651,0,-1.4404,-1.4428,-1.4446,-1.4462,-1.4474,-1.4491,-1.4505,-1.4519,-1.4546,-1.4555,-1.4557,-1.4595,-1.4611,-1.4633,-1.4635,-1.4644,-1.4649,-1.4647,-1.4657,-1.4657,-1.4658,-1.4662,-1.4663,-1.465,-1.465,-1.465,-1.465,0,-1.4416,-1.4432,-1.444,-1.4467,-1.448,-1.4494,-1.4516,-1.4527,-1.4538,-1.4553,-1.4573,-1.4593,-1.4616,-1.4622,-1.4632,-1.4646,-1.4647,-1.4653,-1.4656,-1.4658,-1.4661,-1.4663,-1.4649,-1.4649,-1.465,-1.465,0,0,-1.4402,-1.4441,-1.4443,-1.4457,-1.4485,-1.4498,-1.4513,-1.4536,-1.4546,-1.4565,-1.4579,-1.4604,-1.461,-1.4623,-1.4636,-1.4645,-1.4651,-1.465,-1.4651,-1.465,-1.4669,-1.4665,-1.4666,-1.4657,-1.4658,-1.4658,-1.4668,0,-1.4406,-1.4435,-1.4453,-1.4475,-1.4491,-1.4508,-1.4522,-1.4541,-1.4556,-1.4572,-1.4588,-1.4606,-1.4612,-1.4621,-1.4631,-1.4648,-1.4655,-1.4647,-1.4671,-1.4672,-1.4666,-1.4668,-1.4664,-1.4672,-1.4669,-1.467,-1.467,0,-1.4414,-1.4433,-1.4457,-1.4484,-1.4492,-1.4504,-1.4527,-1.4542,-1.4564,-1.4574,-1.459,-1.4603,-1.4621,-1.4624,-1.4649,-1.4644,-1.4655,-1.4665,-1.4666,-1.4669,-1.4671,-1.4672,-1.4675,-1.4676,-1.4672,-1.4672,-1.4672,0,-1.4403,-1.4435,-1.4454,-1.4464,-1.4497,-1.4505,-1.4519,-1.4541,-1.4554,-1.4574,-1.4583,-1.4605,-1.4617,-1.4633,-1.4652,-1.4652,-1.4677,-1.468,-1.4686,-1.4686,-1.4691,-1.469,-1.4696,-1.4697,-1.4697,-1.4697,-1.4697,0,-1.4405,-1.4419,-1.4449,-1.4461,-1.4477,-1.4499,-1.4515,-1.453,-1.455,-1.4565,-1.4582,-1.4596,-1.462,-1.4637,-1.4652,-1.4672,-1.4677,-1.4686,-1.469,-1.4685,-1.4684,-1.4692,-1.4693,-1.4697,-1.4697,-1.4697,-1.4697,0,-1.4395,-1.4416,-1.4438,-1.4468,-1.4475,-1.4487,-1.4512,-1.4524,-1.4541,-1.456,-1.4566,-1.4591,-1.4612,-1.4633,-1.4661,-1.4672,-1.4692,-1.4696,-1.4684,-1.4686,-1.4692,-1.4691,-1.4703,-1.4706,-1.4705,-1.4705,-1.4705,0,-1.4395,-1.4407,-1.4438,-1.445,-1.4464,-1.4482,-1.4496,-1.4517,-1.4531,-1.4559,-1.4568,-1.4591,-1.461,-1.4643,-1.4664,-1.4687,-1.4693,-1.4695,-1.4696,-1.4691,-1.4694,-1.4693,-1.4695,-1.4695,-1.4695,-1.4695,-1.4695,0,-1.4394,-1.4404,-1.4423,-1.4447,-1.4463,-1.4482,-1.4501,-1.451,-1.4536,-1.455,-1.4573,-1.4588,-1.4618,-1.4641,-1.4666,-1.4681,-1.4692,-1.4694,-1.4697,-1.4692,-1.4685,-1.469,-1.4684,-1.4694,-1.4694,-1.4694,-1.4694,-1.4694,-1.439,-1.4401,-1.4426,-1.4447,-1.4465,-1.4483,-1.4497,-1.4515,-1.4534,-1.4561,-1.4572,-1.4595,-1.4619,-1.4654,-1.4669,-1.4688,-1.469,-1.4694,-1.4695,-1.4696,-1.4695,-1.4682,-1.4692,-1.4692,-1.4692,-1.4692,-1.4692,0,-1.439,-1.4407,-1.4426,-1.4454,-1.4471,-1.4481,-1.4504,-1.4518,-1.4538,-1.4559,-1.4578,-1.4605,-1.4628,-1.4651,-1.4675,-1.4686,-1.4692,-1.4692,-1.4691,-1.4695,-1.4691,-1.4686,-1.4686,-1.4686,-1.4686,-1.4686,-1.4686,-1.4686,-1.4392,-1.4413,-1.4426,-1.4456,-1.4473,-1.4496,-1.4508,-1.4526,-1.4543,-1.4572,-1.4592,-1.4607,-1.463,-1.4656,-1.4678,-1.4684,-1.4693,-1.4691,-1.4699,-1.4695,-1.4695,-1.4695,-1.4691,-1.4692,-1.4692,-1.4701,-1.4702,-1.4702]}]]